Location: Asheville, NC
(35.6000°N, 82.5500°W)
Time: 17:14:11
(UTC-05:00)

XW-2D - Visible Passes

Search period start: 21 January 2018 00:00
Search period end: 31 January 2018 00:00
Orbit: 510 x 531 km, 97.5° (Epoch: 21 January)

Date Brightness Start Highest point End Pass type
(mag) Time Alt. Az. Time Alt. Az. Time Alt. Az.
21 Jan ? 06:47:11 10° N 06:50:52 59° WNW 06:54:31 10° SSW visible
21 Jan ? 19:01:26 10° WSW 19:02:48 12° W 19:04:10 10° WNW visible
22 Jan ? 06:33:49 10° NNE 06:37:34 89° E 06:41:17 10° SSW visible
22 Jan ? 18:46:49 10° SW 18:49:23 17° W 18:51:57 10° NW visible
23 Jan ? 06:20:33 10° NNE 06:24:14 56° E 06:27:54 10° S visible
23 Jan ? 18:32:49 10° SSW 18:35:59 25° W 18:39:11 10° NW visible
24 Jan ? 06:07:24 10° NNE 06:10:53 36° E 06:14:20 10° SSE visible
24 Jan ? 18:19:04 10° SSW 18:22:37 37° W 18:26:10 10° NNW visible
25 Jan ? 05:54:24 10° NE 05:57:30 24° E 06:00:35 10° SSE visible
26 Jan ? 05:41:39 10° NE 05:44:06 17° E 05:46:32 10° SE visible
27 Jan ? 05:29:33 10° ENE 05:30:40 11° E 05:31:48 10° ESE visible
27 Jan ? 07:01:31 10° N 07:04:58 37° WNW 07:08:24 10° SW visible
28 Jan ? 06:48:00 10° N 06:51:41 57° WNW 06:55:19 10° SSW visible
28 Jan ? 19:02:28 10° WSW 19:03:38 11° W 19:04:47 10° WNW visible
29 Jan ? 06:34:37 10° NNE 06:38:22 89° WNW 06:42:05 10° SSW visible
29 Jan ? 18:47:44 10° SW 18:50:13 17° W 18:52:41 10° NW visible
30 Jan ? 06:21:20 10° NNE 06:25:02 58° E 06:28:42 10° S visible
30 Jan ? 18:33:41 10° SSW 18:36:48 24° W 18:39:55 10° NW visible
